owner,sensor,date,latitude,longitude,vertical_datum,wind_speed,wind_to_direction,wind_speed_of_gust,qcFlag 
TCOON,ioos:station:TCOON:013:1,2016-07-01T00:18:00Z,27.4847,-97.3181,0.0,5.5,132.0,6.7,'1111122,1111122,1111122' 
TCOON,ioos:station:TCOON:013:1,2016-07-01T01:18:00Z,27.4847,-97.3181,0.0,5.2,124.0,6.7,'1111122,1111122,1111122' 
TCOON,ioos:station:TCOON:013:1,2016-07-01T02:18:00Z,27.4847,-97.3181,0.0,3.9,123.0,5.9,'1111122,1111122,1111122' 
TCOON,ioos:station:TCOON:013:1,2016-07-01T03:18:00Z,27.4847,-97.3181,0.0,3.7,124.0,5.1,'1111122,1111122,1111122' 
TCOON,ioos:station:TCOON:013:1,2016-07-01T04:18:00Z,27.4847,-97.3181,0.0,6.0,152.0,7.0,'1111122,1111122,1111122' 
TCOON,ioos:station:TCOON:013:1,2016-07-01T05:18:00Z,27.4847,-97.3181,0.0,4.7,149.0,5.6,'1111122,1111122,1111122' 
TCOON,ioos:station:TCOON:013:1,2016-07-01T06:18:00Z,27.4847,-97.3181,0.0,3.0,155.0,3.6,'1111122,1111122,1111122' 
TCOON,ioos:station:TCOON:013:1,2016-07-01T07:18:00Z,27.4847,-97.3181,0.0,3.8,168.0,4.3,'1111122,1111122,1111122' 
TCOON,ioos:station:TCOON:013:1,2016-07-01T08:18:00Z,27.4847,-97.3181,0.0,4.0,170.0,4.9,'1111122,1111122,1111122' 
TCOON,ioos:station:TCOON:013:1,2016-07-01T09:18:00Z,27.4847,-97.3181,0.0,3.7,178.0,4.5,'1111122,1111122,1111122' 
TCOON,ioos:station:TCOON:013:1,2016-07-01T10:18:00Z,27.4847,-97.3181,0.0,6.3,183.0,7.3,'1111122,1111122,1111122' 
TCOON,ioos:station:TCOON:013:1,2016-07-01T11:18:00Z,27.4847,-97.3181,0.0,6.5,188.0,7.7,'1111122,1111122,1111122' 
TCOON,ioos:station:TCOON:013:1,2016-07-01T12:18:00Z,27.4847,-97.3181,0.0,5.6,182.0,6.4,'1111122,1111122,1111122' 
TCOON,ioos:station:TCOON:013:1,2016-07-01T13:18:00Z,27.4847,-97.3181,0.0,5.3,186.0,6.6,'1111122,1111122,1111122' 
TCOON,ioos:station:TCOON:013:1,2016-07-01T14:18:00Z,27.4847,-97.3181,0.0,6.4,178.0,8.4,'1111122,1111122,1111122' 
TCOON,ioos:station:TCOON:013:1,2016-07-01T15:18:00Z,27.4847,-97.3181,0.0,5.7,146.0,8.3,'1111122,1111122,1111122' 
TCOON,ioos:station:TCOON:013:1,2016-07-01T16:18:00Z,27.4847,-97.3181,0.0,5.2,157.0,7.0,'1111122,1111122,1111122' 
TCOON,ioos:station:TCOON:013:1,2016-07-01T17:18:00Z,27.4847,-97.3181,0.0,5.0,135.0,6.3,'1111122,1111122,1111122' 
TCOON,ioos:station:TCOON:013:1,2016-07-01T18:18:00Z,27.4847,-97.3181,0.0,5.6,128.0,7.2,'1111122,1111122,1111122' 
TCOON,ioos:station:TCOON:013:1,2016-07-01T19:18:00Z,27.4847,-97.3181,0.0,7.2,117.0,8.3,'1111122,1111122,1111122' 
TCOON,ioos:station:TCOON:013:1,2016-07-01T20:18:00Z,27.4847,-97.3181,0.0,7.5,124.0,9.8,'1111122,1111122,1111122' 
TCOON,ioos:station:TCOON:013:1,2016-07-01T21:18:00Z,27.4847,-97.3181,0.0,7.9,121.0,9.4,'1111122,1111122,1111122' 
TCOON,ioos:station:TCOON:013:1,2016-07-01T22:18:00Z,27.4847,-97.3181,0.0,9.1,143.0,10.5,'1111122,1111122,1111122' 
TCOON,ioos:station:TCOON:013:1,2016-07-02T00:18:00Z,27.4847,-97.3181,0.0,7.9,131.0,9.7,'1111122,1111122,1111122' 
TCOON,ioos:station:TCOON:013:1,2016-07-02T01:18:00Z,27.4847,-97.3181,0.0,7.5,139.0,10.1,'1111122,1111122,1111122' 
TCOON,ioos:station:TCOON:013:1,2016-07-02T02:18:00Z,27.4847,-97.3181,0.0,8.8,138.0,10.2,'1111122,1111122,1111122' 
TCOON,ioos:station:TCOON:013:1,2016-07-02T03:18:00Z,27.4847,-97.3181,0.0,7.0,145.0,8.8,'1111122,1111122,1111122' 
TCOON,ioos:station:TCOON:013:1,2016-07-02T04:18:00Z,27.4847,-97.3181,0.0,8.0,149.0,9.6,'1111122,1111122,1111122' 
TCOON,ioos:station:TCOON:013:1,2016-07-02T05:18:00Z,27.4847,-97.3181,0.0,7.2,156.0,9.3,'1111122,1111122,1111122' 
TCOON,ioos:station:TCOON:013:1,2016-07-02T06:24:00Z,27.4847,-97.3181,0.0,6.0,158.0,7.6,'1111122,1111122,1111122' 
TCOON,ioos:station:TCOON:013:1,2016-07-02T07:18:00Z,27.4847,-97.3181,0.0,5.7,158.0,7.6,'1111122,1111122,1111122' 
TCOON,ioos:station:TCOON:013:1,2016-07-02T08:18:00Z,27.4847,-97.3181,0.0,6.0,163.0,7.1,'1111122,1111122,1111122' 
TCOON,ioos:station:TCOON:013:1,2016-07-02T09:18:00Z,27.4847,-97.3181,0.0,6.3,165.0,7.3,'1111122,1111122,1111122' 
TCOON,ioos:station:TCOON:013:1,2016-07-02T10:18:00Z,27.4847,-97.3181,0.0,6.9,167.0,8.0,'1111122,1111122,1111122' 
TCOON,ioos:station:TCOON:013:1,2016-07-02T11:18:00Z,27.4847,-97.3181,0.0,6.7,167.0,7.8,'1111122,1111122,1111122' 
TCOON,ioos:station:TCOON:013:1,2016-07-02T12:18:00Z,27.4847,-97.3181,0.0,6.6,166.0,8.2,'1111122,1111122,1111122' 
TCOON,ioos:station:TCOON:013:1,2016-07-02T13:18:00Z,27.4847,-97.3181,0.0,7.1,166.0,9.0,'1111122,1111122,1111122' 
TCOON,ioos:station:TCOON:013:1,2016-07-02T14:18:00Z,27.4847,-97.3181,0.0,8.4,169.0,10.1,'1111122,1111122,1111122' 
TCOON,ioos:station:TCOON:013:1,2016-07-02T15:18:00Z,27.4847,-97.3181,0.0,8.2,154.0,9.6,'1111122,1111122,1111122' 
TCOON,ioos:station:TCOON:013:1,2016-07-02T16:18:00Z,27.4847,-97.3181,0.0,6.7,139.0,9.3,'1111122,1111122,1111122' 
TCOON,ioos:station:TCOON:013:1,2016-07-02T17:18:00Z,27.4847,-97.3181,0.0,8.0,131.0,10.3,'1111122,1111122,1111122' 
TCOON,ioos:station:TCOON:013:1,2016-07-02T18:18:00Z,27.4847,-97.3181,0.0,9.1,130.0,10.7,'1111122,1111122,1111122' 
TCOON,ioos:station:TCOON:013:1,2016-07-02T19:18:00Z,27.4847,-97.3181,0.0,9.4,130.0,11.9,'1111122,1111122,1111122' 
TCOON,ioos:station:TCOON:013:1,2016-07-02T21:18:00Z,27.4847,-97.3181,0.0,9.8,132.0,13.0,'1111122,1111122,1111122' 
TCOON,ioos:station:TCOON:013:1,2016-07-02T22:18:00Z,27.4847,-97.3181,0.0,10.0,142.0,12.2,'1111122,1111122,1111122' 
TCOON,ioos:station:TCOON:013:1,2016-07-02T23:18:00Z,27.4847,-97.3181,0.0,11.1,145.0,12.8,'1111122,1111122,1111122' 
TCOON,ioos:station:TCOON:013:1,2016-07-03T00:18:00Z,27.4847,-97.3181,0.0,10.3,135.0,12.6,'1111122,1111122,1111122' 
TCOON,ioos:station:TCOON:013:1,2016-07-03T01:18:00Z,27.4847,-97.3181,0.0,7.5,136.0,10.7,'1111122,1111122,1111122' 
TCOON,ioos:station:TCOON:013:1,2016-07-03T02:18:00Z,27.4847,-97.3181,0.0,8.2,142.0,9.7,'1111122,1111122,1111122' 
TCOON,ioos:station:TCOON:013:1,2016-07-03T03:18:00Z,27.4847,-97.3181,0.0,7.5,146.0,9.2,'1111122,1111122,1111122' 
TCOON,ioos:station:TCOON:013:1,2016-07-03T04:18:00Z,27.4847,-97.3181,0.0,8.9,153.0,9.9,'1111122,1111122,1111122' 
TCOON,ioos:station:TCOON:013:1,2016-07-03T05:18:00Z,27.4847,-97.3181,0.0,8.6,147.0,10.3,'1111122,1111122,1111122' 
TCOON,ioos:station:TCOON:013:1,2016-07-03T06:18:00Z,27.4847,-97.3181,0.0,7.3,151.0,9.5,'1111122,1111122,1111122' 
TCOON,ioos:station:TCOON:013:1,2016-07-03T07:18:00Z,27.4847,-97.3181,0.0,7.2,158.0,8.9,'1111122,1111122,1111122' 
TCOON,ioos:station:TCOON:013:1,2016-07-03T08:18:00Z,27.4847,-97.3181,0.0,7.8,155.0,9.3,'1111122,1111122,1111122' 
TCOON,ioos:station:TCOON:013:1,2016-07-03T09:18:00Z,27.4847,-97.3181,0.0,6.2,160.0,8.1,'1111122,1111122,1111122' 
TCOON,ioos:station:TCOON:013:1,2016-07-03T10:18:00Z,27.4847,-97.3181,0.0,6.7,157.0,7.9,'1111122,1111122,1111122' 
TCOON,ioos:station:TCOON:013:1,2016-07-03T11:18:00Z,27.4847,-97.3181,0.0,7.0,158.0,9.0,'1111122,1111122,1111122' 
TCOON,ioos:station:TCOON:013:1,2016-07-03T12:18:00Z,27.4847,-97.3181,0.0,7.9,155.0,9.3,'1111122,1111122,1111122' 
TCOON,ioos:station:TCOON:013:1,2016-07-03T13:18:00Z,27.4847,-97.3181,0.0,8.2,164.0,11.1,'1111122,1111122,1111122' 
TCOON,ioos:station:TCOON:013:1,2016-07-03T14:18:00Z,27.4847,-97.3181,0.0,9.7,157.0,10.9,'1111122,1111122,1111122' 
TCOON,ioos:station:TCOON:013:1,2016-07-03T15:18:00Z,27.4847,-97.3181,0.0,9.2,155.0,11.6,'1111122,1111122,1111122' 
TCOON,ioos:station:TCOON:013:1,2016-07-03T16:18:00Z,27.4847,-97.3181,0.0,10.1,158.0,12.0,'1111122,1111122,1111122' 
TCOON,ioos:station:TCOON:013:1,2016-07-03T17:18:00Z,27.4847,-97.3181,0.0,11.4,147.0,12.7,'1111122,1111122,1111122' 
TCOON,ioos:station:TCOON:013:1,2016-07-03T18:18:00Z,27.4847,-97.3181,0.0,11.7,143.0,13.9,'1111122,1111122,1111122' 
TCOON,ioos:station:TCOON:013:1,2016-07-03T19:18:00Z,27.4847,-97.3181,0.0,10.8,139.0,13.3,'1111122,1111122,1111122' 
TCOON,ioos:station:TCOON:013:1,2016-07-03T20:18:00Z,27.4847,-97.3181,0.0,12.1,141.0,14.5,'1111122,1111122,1111122' 
TCOON,ioos:station:TCOON:013:1,2016-07-03T21:18:00Z,27.4847,-97.3181,0.0,11.4,142.0,14.2,'1111122,1111122,1111122' 
TCOON,ioos:station:TCOON:013:1,2016-07-03T22:18:00Z,27.4847,-97.3181,0.0,10.5,136.0,13.9,'1111122,1111122,1111122' 
TCOON,ioos:station:TCOON:013:1,2016-07-03T23:18:00Z,27.4847,-97.3181,0.0,11.9,145.0,14.1,'1111122,1111122,1111122' 
TCOON,ioos:station:TCOON:013:1,2016-07-04T00:18:00Z,27.4847,-97.3181,0.0,10.4,143.0,12.9,'1111122,1111122,1111122' 
TCOON,ioos:station:TCOON:013:1,2016-07-04T01:18:00Z,27.4847,-97.3181,0.0,9.1,142.0,11.4,'1111122,1111122,1111122' 
TCOON,ioos:station:TCOON:013:1,2016-07-04T02:18:00Z,27.4847,-97.3181,0.0,8.1,148.0,10.6,'1111122,1111122,1111122' 
TCOON,ioos:station:TCOON:013:1,2016-07-04T03:18:00Z,27.4847,-97.3181,0.0,8.1,153.0,10.2,'1111122,1111122,1111122' 
TCOON,ioos:station:TCOON:013:1,2016-07-04T04:18:00Z,27.4847,-97.3181,0.0,9.3,160.0,10.9,'1111122,1111122,1111122' 
TCOON,ioos:station:TCOON:013:1,2016-07-04T05:18:00Z,27.4847,-97.3181,0.0,9.3,160.0,11.5,'1111122,1111122,1111122' 
TCOON,ioos:station:TCOON:013:1,2016-07-04T06:18:00Z,27.4847,-97.3181,0.0,8.1,160.0,10.3,'1111122,1111122,1111122' 
TCOON,ioos:station:TCOON:013:1,2016-07-04T07:18:00Z,27.4847,-97.3181,0.0,8.5,160.0,10.4,'1111122,1111122,1111122' 
TCOON,ioos:station:TCOON:013:1,2016-07-04T08:18:00Z,27.4847,-97.3181,0.0,9.7,160.0,12.2,'1111122,1111122,1111122' 
TCOON,ioos:station:TCOON:013:1,2016-07-04T09:18:00Z,27.4847,-97.3181,0.0,10.0,158.0,11.8,'1111122,1111122,1111122' 
TCOON,ioos:station:TCOON:013:1,2016-07-04T10:18:00Z,27.4847,-97.3181,0.0,8.1,163.0,9.6,'1111122,1111122,1111122' 
TCOON,ioos:station:TCOON:013:1,2016-07-04T11:18:00Z,27.4847,-97.3181,0.0,7.2,168.0,9.2,'1111122,1111122,1111122' 
TCOON,ioos:station:TCOON:013:1,2016-07-04T12:18:00Z,27.4847,-97.3181,0.0,6.3,163.0,8.0,'1111122,1111122,1111122' 
TCOON,ioos:station:TCOON:013:1,2016-07-04T13:18:00Z,27.4847,-97.3181,0.0,6.9,164.0,8.5,'1111122,1111122,1111122' 
TCOON,ioos:station:TCOON:013:1,2016-07-04T14:18:00Z,27.4847,-97.3181,0.0,8.3,164.0,11.7,'1111122,1111122,1111122' 
TCOON,ioos:station:TCOON:013:1,2016-07-04T15:18:00Z,27.4847,-97.3181,0.0,9.9,151.0,12.3,'1111122,1111122,1111122' 
TCOON,ioos:station:TCOON:013:1,2016-07-04T16:18:00Z,27.4847,-97.3181,0.0,10.9,156.0,14.1,'1111122,1111122,1111122' 
TCOON,ioos:station:TCOON:013:1,2016-07-04T17:18:00Z,27.4847,-97.3181,0.0,9.5,152.0,13.1,'1111122,1111122,1111122' 
TCOON,ioos:station:TCOON:013:1,2016-07-04T18:18:00Z,27.4847,-97.3181,0.0,11.0,144.0,14.6,'1111122,1111122,1111122' 
TCOON,ioos:station:TCOON:013:1,2016-07-04T19:18:00Z,27.4847,-97.3181,0.0,12.2,141.0,14.7,'1111122,1111122,1111122' 
TCOON,ioos:station:TCOON:013:1,2016-07-04T20:18:00Z,27.4847,-97.3181,0.0,11.6,144.0,14.7,'1111122,1111122,1111122' 
TCOON,ioos:station:TCOON:013:1,2016-07-04T21:18:00Z,27.4847,-97.3181,0.0,12.0,141.0,14.7,'1111122,1111122,1111122' 
TCOON,ioos:station:TCOON:013:1,2016-07-04T22:18:00Z,27.4847,-97.3181,0.0,11.7,144.0,13.5,'1111122,1111122,1111122' 
TCOON,ioos:station:TCOON:013:1,2016-07-04T23:18:00Z,27.4847,-97.3181,0.0,11.3,140.0,14.7,'1111122,1111122,1111122' 
TCOON,ioos:station:TCOON:013:1,2016-07-05T00:18:00Z,27.4847,-97.3181,0.0,9.0,133.0,11.9,'1111122,1111122,1111122' 
TCOON,ioos:station:TCOON:013:1,2016-07-05T01:18:00Z,27.4847,-97.3181,0.0,6.2,139.0,7.7,'1111122,1111122,1111122' 
TCOON,ioos:station:TCOON:013:1,2016-07-05T02:18:00Z,27.4847,-97.3181,0.0,5.5,137.0,7.0,'1111122,1111122,1111122' 
TCOON,ioos:station:TCOON:013:1,2016-07-05T03:18:00Z,27.4847,-97.3181,0.0,7.2,139.0,9.1,'1111122,1111122,1111122' 
TCOON,ioos:station:TCOON:013:1,2016-07-05T04:24:00Z,27.4847,-97.3181,0.0,6.9,146.0,8.5,'1111122,1111122,1111122' 
TCOON,ioos:station:TCOON:013:1,2016-07-05T05:18:00Z,27.4847,-97.3181,0.0,7.6,148.0,9.9,'1111122,1111122,1111122' 
TCOON,ioos:station:TCOON:013:1,2016-07-05T06:18:00Z,27.4847,-97.3181,0.0,8.6,159.0,10.5,'1111122,1111122,1111122' 
TCOON,ioos:station:TCOON:013:1,2016-07-05T07:18:00Z,27.4847,-97.3181,0.0,8.1,156.0,9.3,'1111122,1111122,1111122' 
TCOON,ioos:station:TCOON:013:1,2016-07-05T08:18:00Z,27.4847,-97.3181,0.0,6.9,158.0,9.2,'1111122,1111122,1111122' 
TCOON,ioos:station:TCOON:013:1,2016-07-05T09:18:00Z,27.4847,-97.3181,0.0,5.7,163.0,6.7,'1111122,1111122,1111122' 
TCOON,ioos:station:TCOON:013:1,2016-07-05T10:18:00Z,27.4847,-97.3181,0.0,5.9,158.0,6.9,'1111122,1111122,1111122' 
TCOON,ioos:station:TCOON:013:1,2016-07-05T11:18:00Z,27.4847,-97.3181,0.0,4.9,164.0,5.9,'1111122,1111122,1111122' 
TCOON,ioos:station:TCOON:013:1,2016-07-05T12:18:00Z,27.4847,-97.3181,0.0,5.3,159.0,6.6,'1111122,1111122,1111122' 
TCOON,ioos:station:TCOON:013:1,2016-07-05T13:18:00Z,27.4847,-97.3181,0.0,8.0,165.0,10.3,'1111122,1111122,1111122' 
TCOON,ioos:station:TCOON:013:1,2016-07-05T14:18:00Z,27.4847,-97.3181,0.0,10.3,161.0,12.1,'1111122,1111122,1111122' 
TCOON,ioos:station:TCOON:013:1,2016-07-05T15:18:00Z,27.4847,-97.3181,0.0,10.2,164.0,12.4,'1111122,1111122,1111122' 
TCOON,ioos:station:TCOON:013:1,2016-07-05T16:18:00Z,27.4847,-97.3181,0.0,10.4,160.0,13.4,'1111122,1111122,1111122' 
TCOON,ioos:station:TCOON:013:1,2016-07-05T17:18:00Z,27.4847,-97.3181,0.0,10.4,155.0,12.0,'1111122,1111122,1111122' 
TCOON,ioos:station:TCOON:013:1,2016-07-05T18:18:00Z,27.4847,-97.3181,0.0,9.6,142.0,13.6,'1111122,1111122,1111122' 
TCOON,ioos:station:TCOON:013:1,2016-07-05T21:18:00Z,27.4847,-97.3181,0.0,11.1,135.0,13.9,'1111122,1111122,1111122' 
TCOON,ioos:station:TCOON:013:1,2016-07-05T22:18:00Z,27.4847,-97.3181,0.0,10.6,132.0,13.2,'1111122,1111122,1111122' 
TCOON,ioos:station:TCOON:013:1,2016-07-05T23:18:00Z,27.4847,-97.3181,0.0,9.9,131.0,12.1,'1111122,1111122,1111122' 
TCOON,ioos:station:TCOON:013:1,2016-07-06T00:18:00Z,27.4847,-97.3181,0.0,7.8,131.0,9.2,'1111122,1111122,1111122' 
TCOON,ioos:station:TCOON:013:1,2016-07-06T01:18:00Z,27.4847,-97.3181,0.0,7.1,135.0,9.3,'1111122,1111122,1111122' 
TCOON,ioos:station:TCOON:013:1,2016-07-06T02:18:00Z,27.4847,-97.3181,0.0,6.6,142.0,9.3,'1111122,1111122,1111122' 
TCOON,ioos:station:TCOON:013:1,2016-07-06T03:18:00Z,27.4847,-97.3181,0.0,5.8,139.0,6.9,'1111122,1111122,1111122' 
TCOON,ioos:station:TCOON:013:1,2016-07-06T04:18:00Z,27.4847,-97.3181,0.0,4.8,138.0,6.3,'1111122,1111122,1111122' 
TCOON,ioos:station:TCOON:013:1,2016-07-06T05:18:00Z,27.4847,-97.3181,0.0,6.5,145.0,8.0,'1111122,1111122,1111122' 
TCOON,ioos:station:TCOON:013:1,2016-07-06T06:18:00Z,27.4847,-97.3181,0.0,5.9,150.0,6.8,'1111122,1111122,1111122' 
TCOON,ioos:station:TCOON:013:1,2016-07-06T07:18:00Z,27.4847,-97.3181,0.0,6.2,157.0,7.6,'1111122,1111122,1111122' 
TCOON,ioos:station:TCOON:013:1,2016-07-06T08:18:00Z,27.4847,-97.3181,0.0,7.3,163.0,9.2,'1111122,1111122,1111122' 
TCOON,ioos:station:TCOON:013:1,2016-07-06T09:18:00Z,27.4847,-97.3181,0.0,8.1,162.0,9.5,'1111122,1111122,1111122' 
TCOON,ioos:station:TCOON:013:1,2016-07-06T10:18:00Z,27.4847,-97.3181,0.0,6.7,161.0,7.8,'1111122,1111122,1111122' 
TCOON,ioos:station:TCOON:013:1,2016-07-06T11:18:00Z,27.4847,-97.3181,0.0,6.7,159.0,8.6,'1111122,1111122,1111122' 
TCOON,ioos:station:TCOON:013:1,2016-07-06T12:18:00Z,27.4847,-97.3181,0.0,6.5,158.0,7.7,'1111122,1111122,1111122' 
TCOON,ioos:station:TCOON:013:1,2016-07-06T13:18:00Z,27.4847,-97.3181,0.0,7.5,158.0,9.0,'1111122,1111122,1111122' 
TCOON,ioos:station:TCOON:013:1,2016-07-06T14:18:00Z,27.4847,-97.3181,0.0,8.0,154.0,9.9,'1111122,1111122,1111122' 
TCOON,ioos:station:TCOON:013:1,2016-07-06T15:18:00Z,27.4847,-97.3181,0.0,10.4,152.0,13.2,'1111122,1111122,1111122' 
TCOON,ioos:station:TCOON:013:1,2016-07-06T16:18:00Z,27.4847,-97.3181,0.0,9.7,151.0,12.1,'1111122,1111122,1111122' 
TCOON,ioos:station:TCOON:013:1,2016-07-06T17:18:00Z,27.4847,-97.3181,0.0,9.7,148.0,11.7,'1111122,1111122,1111122' 
TCOON,ioos:station:TCOON:013:1,2016-07-06T18:36:00Z,27.4847,-97.3181,0.0,10.9,147.0,13.8,'1111122,1111122,1111122' 
TCOON,ioos:station:TCOON:013:1,2016-07-06T19:18:00Z,27.4847,-97.3181,0.0,9.9,147.0,13.1,'1111122,1111122,1111122' 
TCOON,ioos:station:TCOON:013:1,2016-07-06T20:18:00Z,27.4847,-97.3181,0.0,8.9,140.0,11.8,'1111122,1111122,1111122' 
TCOON,ioos:station:TCOON:013:1,2016-07-06T21:18:00Z,27.4847,-97.3181,0.0,9.8,141.0,13.1,'1111122,1111122,1111122' 
TCOON,ioos:station:TCOON:013:1,2016-07-06T22:18:00Z,27.4847,-97.3181,0.0,10.8,137.0,14.0,'1111122,1111122,1111122' 
TCOON,ioos:station:TCOON:013:1,2016-07-06T23:18:00Z,27.4847,-97.3181,0.0,9.0,137.0,10.9,'1111122,1111122,1111122' 
TCOON,ioos:station:TCOON:013:1,2016-07-07T00:18:00Z,27.4847,-97.3181,0.0,9.2,137.0,11.2,'1111122,1111122,1111122' 
TCOON,ioos:station:TCOON:013:1,2016-07-07T01:18:00Z,27.4847,-97.3181,0.0,7.3,142.0,9.0,'1111122,1111122,1111122' 
TCOON,ioos:station:TCOON:013:1,2016-07-07T02:18:00Z,27.4847,-97.3181,0.0,6.2,144.0,7.7,'1111122,1111122,1111122' 
TCOON,ioos:station:TCOON:013:1,2016-07-07T03:18:00Z,27.4847,-97.3181,0.0,5.7,140.0,7.1,'1111122,1111122,1111122' 
TCOON,ioos:station:TCOON:013:1,2016-07-07T04:18:00Z,27.4847,-97.3181,0.0,5.5,143.0,7.4,'1111122,1111122,1111122' 
TCOON,ioos:station:TCOON:013:1,2016-07-07T05:18:00Z,27.4847,-97.3181,0.0,5.5,149.0,7.1,'1111122,1111122,1111122' 
TCOON,ioos:station:TCOON:013:1,2016-07-07T06:18:00Z,27.4847,-97.3181,0.0,5.4,144.0,6.7,'1111122,1111122,1111122' 
TCOON,ioos:station:TCOON:013:1,2016-07-07T07:18:00Z,27.4847,-97.3181,0.0,5.4,141.0,6.7,'1111122,1111122,1111122' 
TCOON,ioos:station:TCOON:013:1,2016-07-07T08:18:00Z,27.4847,-97.3181,0.0,5.1,141.0,6.0,'1111122,1111122,1111122' 
TCOON,ioos:station:TCOON:013:1,2016-07-07T09:18:00Z,27.4847,-97.3181,0.0,6.1,139.0,7.6,'1111122,1111122,1111122' 
TCOON,ioos:station:TCOON:013:1,2016-07-07T10:18:00Z,27.4847,-97.3181,0.0,6.2,142.0,7.7,'1111122,1111122,1111122' 
TCOON,ioos:station:TCOON:013:1,2016-07-07T11:18:00Z,27.4847,-97.3181,0.0,5.5,149.0,6.7,'1111122,1111122,1111122' 
TCOON,ioos:station:TCOON:013:1,2016-07-07T12:18:00Z,27.4847,-97.3181,0.0,4.7,153.0,5.6,'1111122,1111122,1111122' 
TCOON,ioos:station:TCOON:013:1,2016-07-07T13:18:00Z,27.4847,-97.3181,0.0,6.1,155.0,7.4,'1111122,1111122,1111122' 
TCOON,ioos:station:TCOON:013:1,2016-07-07T14:18:00Z,27.4847,-97.3181,0.0,7.4,153.0,9.1,'1111122,1111122,1111122' 
TCOON,ioos:station:TCOON:013:1,2016-07-07T15:18:00Z,27.4847,-97.3181,0.0,7.7,159.0,9.9,'1111122,1111122,1111122' 
TCOON,ioos:station:TCOON:013:1,2016-07-07T16:18:00Z,27.4847,-97.3181,0.0,8.0,153.0,11.8,'1111122,1111122,1111122' 
TCOON,ioos:station:TCOON:013:1,2016-07-07T17:24:00Z,27.4847,-97.3181,0.0,9.3,144.0,11.5,'1111122,1111122,1111122' 
TCOON,ioos:station:TCOON:013:1,2016-07-07T18:18:00Z,27.4847,-97.3181,0.0,9.4,137.0,10.5,'1111122,1111122,1111122' 
TCOON,ioos:station:TCOON:013:1,2016-07-07T19:18:00Z,27.4847,-97.3181,0.0,10.0,137.0,12.2,'1111122,1111122,1111122' 
TCOON,ioos:station:TCOON:013:1,2016-07-07T20:18:00Z,27.4847,-97.3181,0.0,9.6,139.0,11.7,'1111122,1111122,1111122' 
TCOON,ioos:station:TCOON:013:1,2016-07-07T21:18:00Z,27.4847,-97.3181,0.0,10.2,134.0,12.8,'1111122,1111122,1111122' 
TCOON,ioos:station:TCOON:013:1,2016-07-07T22:18:00Z,27.4847,-97.3181,0.0,8.2,133.0,10.4,'1111122,1111122,1111122' 
TCOON,ioos:station:TCOON:013:1,2016-07-07T23:18:00Z,27.4847,-97.3181,0.0,9.1,133.0,11.8,'1111122,1111122,1111122' 
TCOON,ioos:station:TCOON:013:1,2016-07-08T00:18:00Z,27.4847,-97.3181,0.0,7.5,130.0,10.1,'1111122,1111122,1111122' 
TCOON,ioos:station:TCOON:013:1,2016-07-08T01:18:00Z,27.4847,-97.3181,0.0,6.5,134.0,8.3,'1111122,1111122,1111122' 
TCOON,ioos:station:TCOON:013:1,2016-07-08T02:18:00Z,27.4847,-97.3181,0.0,7.2,141.0,9.3,'1111122,1111122,1111122' 
TCOON,ioos:station:TCOON:013:1,2016-07-08T03:18:00Z,27.4847,-97.3181,0.0,6.3,144.0,8.2,'1111122,1111122,1111122' 
TCOON,ioos:station:TCOON:013:1,2016-07-08T04:24:00Z,27.4847,-97.3181,0.0,6.2,145.0,7.3,'1111122,1111122,1111122' 
TCOON,ioos:station:TCOON:013:1,2016-07-08T05:18:00Z,27.4847,-97.3181,0.0,6.1,145.0,7.6,'1111122,1111122,1111122' 
TCOON,ioos:station:TCOON:013:1,2016-07-08T06:18:00Z,27.4847,-97.3181,0.0,5.1,146.0,7.4,'1111122,1111122,1111122' 
TCOON,ioos:station:TCOON:013:1,2016-07-08T07:18:00Z,27.4847,-97.3181,0.0,5.7,154.0,6.4,'1111122,1111122,1111122' 
TCOON,ioos:station:TCOON:013:1,2016-07-08T08:18:00Z,27.4847,-97.3181,0.0,5.4,164.0,6.5,'1111122,1111122,1111122' 
TCOON,ioos:station:TCOON:013:1,2016-07-08T09:18:00Z,27.4847,-97.3181,0.0,6.0,158.0,6.8,'1111122,1111122,1111122' 
TCOON,ioos:station:TCOON:013:1,2016-07-08T10:18:00Z,27.4847,-97.3181,0.0,6.7,159.0,7.5,'1111122,1111122,1111122' 
TCOON,ioos:station:TCOON:013:1,2016-07-08T11:18:00Z,27.4847,-97.3181,0.0,6.4,156.0,7.5,'1111122,1111122,1111122' 
TCOON,ioos:station:TCOON:013:1,2016-07-08T12:18:00Z,27.4847,-97.3181,0.0,4.4,143.0,5.8,'1111122,1111122,1111122' 
TCOON,ioos:station:TCOON:013:1,2016-07-08T13:18:00Z,27.4847,-97.3181,0.0,4.0,138.0,6.1,'1111122,1111122,1111122' 
TCOON,ioos:station:TCOON:013:1,2016-07-08T14:24:00Z,27.4847,-97.3181,0.0,6.3,140.0,8.2,'1111122,1111122,1111122' 
TCOON,ioos:station:TCOON:013:1,2016-07-08T15:18:00Z,27.4847,-97.3181,0.0,7.7,135.0,9.8,'1111122,1111122,1111122' 
TCOON,ioos:station:TCOON:013:1,2016-07-08T16:18:00Z,27.4847,-97.3181,0.0,7.3,136.0,9.8,'1111122,1111122,1111122' 
TCOON,ioos:station:TCOON:013:1,2016-07-08T17:18:00Z,27.4847,-97.3181,0.0,9.2,138.0,11.7,'1111122,1111122,1111122' 
TCOON,ioos:station:TCOON:013:1,2016-07-08T18:18:00Z,27.4847,-97.3181,0.0,8.3,140.0,10.8,'1111122,1111122,1111122' 
TCOON,ioos:station:TCOON:013:1,2016-07-08T19:18:00Z,27.4847,-97.3181,0.0,9.1,144.0,11.5,'1111122,1111122,1111122' 
TCOON,ioos:station:TCOON:013:1,2016-07-08T20:18:00Z,27.4847,-97.3181,0.0,8.1,128.0,10.5,'1111122,1111122,1111122' 
TCOON,ioos:station:TCOON:013:1,2016-07-08T21:18:00Z,27.4847,-97.3181,0.0,8.1,124.0,10.1,'1111122,1111122,1111122' 
TCOON,ioos:station:TCOON:013:1,2016-07-08T22:18:00Z,27.4847,-97.3181,0.0,9.0,124.0,11.5,'1111122,1111122,1111122' 
TCOON,ioos:station:TCOON:013:1,2016-07-08T23:18:00Z,27.4847,-97.3181,0.0,7.4,130.0,10.3,'1111122,1111122,1111122' 
TCOON,ioos:station:TCOON:013:1,2016-07-09T00:18:00Z,27.4847,-97.3181,0.0,6.8,135.0,8.5,'1111122,1111122,1111122' 
TCOON,ioos:station:TCOON:013:1,2016-07-09T01:18:00Z,27.4847,-97.3181,0.0,5.3,134.0,6.3,'1111122,1111122,1111122' 
TCOON,ioos:station:TCOON:013:1,2016-07-09T02:18:00Z,27.4847,-97.3181,0.0,5.2,143.0,6.4,'1111122,1111122,1111122' 
TCOON,ioos:station:TCOON:013:1,2016-07-09T03:18:00Z,27.4847,-97.3181,0.0,5.6,146.0,6.5,'1111122,1111122,1111122' 
TCOON,ioos:station:TCOON:013:1,2016-07-09T04:18:00Z,27.4847,-97.3181,0.0,4.1,142.0,5.2,'1111122,1111122,1111122' 
TCOON,ioos:station:TCOON:013:1,2016-07-09T05:18:00Z,27.4847,-97.3181,0.0,5.0,141.0,6.1,'1111122,1111122,1111122' 
TCOON,ioos:station:TCOON:013:1,2016-07-09T06:24:00Z,27.4847,-97.3181,0.0,4.5,136.0,5.4,'1111122,1111122,1111122' 
TCOON,ioos:station:TCOON:013:1,2016-07-09T07:18:00Z,27.4847,-97.3181,0.0,3.9,132.0,4.7,'1111122,1111122,1111122' 
TCOON,ioos:station:TCOON:013:1,2016-07-09T08:18:00Z,27.4847,-97.3181,0.0,5.6,146.0,7.6,'1111122,1111122,1111122' 
TCOON,ioos:station:TCOON:013:1,2016-07-09T09:18:00Z,27.4847,-97.3181,0.0,5.2,149.0,6.2,'1111122,1111122,1111122' 
TCOON,ioos:station:TCOON:013:1,2016-07-09T10:18:00Z,27.4847,-97.3181,0.0,5.1,147.0,6.4,'1111122,1111122,1111122' 
TCOON,ioos:station:TCOON:013:1,2016-07-09T11:18:00Z,27.4847,-97.3181,0.0,5.7,156.0,7.3,'1111122,1111122,1111122' 
TCOON,ioos:station:TCOON:013:1,2016-07-09T12:18:00Z,27.4847,-97.3181,0.0,5.3,141.0,6.2,'1111122,1111122,1111122' 
TCOON,ioos:station:TCOON:013:1,2016-07-09T13:18:00Z,27.4847,-97.3181,0.0,6.3,148.0,7.6,'1111122,1111122,1111122' 
TCOON,ioos:station:TCOON:013:1,2016-07-09T14:18:00Z,27.4847,-97.3181,0.0,6.7,147.0,8.2,'1111122,1111122,1111122' 
TCOON,ioos:station:TCOON:013:1,2016-07-09T15:18:00Z,27.4847,-97.3181,0.0,6.9,142.0,9.2,'1111122,1111122,1111122' 
TCOON,ioos:station:TCOON:013:1,2016-07-09T16:18:00Z,27.4847,-97.3181,0.0,7.2,140.0,8.6,'1111122,1111122,1111122' 
TCOON,ioos:station:TCOON:013:1,2016-07-09T17:18:00Z,27.4847,-97.3181,0.0,7.4,129.0,10.0,'1111122,1111122,1111122' 
TCOON,ioos:station:TCOON:013:1,2016-07-09T18:18:00Z,27.4847,-97.3181,0.0,7.3,128.0,9.7,'1111122,1111122,1111122' 
TCOON,ioos:station:TCOON:013:1,2016-07-09T19:18:00Z,27.4847,-97.3181,0.0,7.4,125.0,9.4,'1111122,1111122,1111122' 